EW5254 Weather Reports


Display with metric or nautical units.
time (UTC)temp
F
wind
direction
speed
MPH
gust
MPH
rain 1hr
in
rain 24hr
in
rain mn
in
humidity
%
barometer
mb
20260901191603 81 5 2.0 10.0 0.00 0.00 0.00 41 1003.2
20260901190100 84 344 6.0 16.0 0.00 0.00 0.00 40 1003.2
20260901184607 86 355 1.0 11.0 0.00 0.00 0.00 36 1003.5
20260901183103 86 230 3.0 9.0 0.00 0.00 0.00 35 1003.5
20260901181556 86 233 5.0 11.0 0.00 0.00 0.00 36 1003.7
20260901180055 86 107 8.0 12.0 0.00 0.00 0.00 36 1004.0
20260901174554 83 155 8.0 17.0 0.00 0.00 0.00 39 1004.2
20260901173053 86 221 8.0 12.0 0.00 0.00 0.00 37 1004.2
20260901171557 84 142 4.0 13.0 0.00 0.00 0.00 38 1004.3
20260901170048 83 232 5.0 11.0 0.00 0.00 0.00 40 1004.4
20260901164545 81 248 5.0 14.0 0.00 0.00 0.00 42 1004.5
20260901163046 81 224 7.0 14.0 0.00 0.00 0.00 42 1004.4
20260901161546 81 229 7.0 14.0 0.00 0.00 0.00 43 1004.4
20260901160051 80 198 9.0 14.0 0.00 0.00 0.00 43 1004.3
20260901154538 79 186 10.0 15.0 0.00 0.00 0.00 45 1004.3
20260901153038 78 178 9.0 15.0 0.00 0.00 0.00 47 1004.2
20260901151534 77 191 9.0 17.0 0.00 0.00 0.00 48 1004.1
20260901150035 78 160 11.0 15.0 0.00 0.00 0.00 46 1003.9
20260901144531 77 184 8.0 15.0 0.00 0.00 0.00 47 1003.9
20260901143029 75 150 3.0 7.0 0.00 0.00 0.00 55 1004.1
20260901141525 74 157 4.0 11.0 0.00 0.00 0.00 56 1004.2
20260901140023 73 132 4.0 7.0 0.00 0.00 0.00 57 1004.0
20260901134540 72 200 2.0 7.0 0.00 0.00 0.00 60 1004.0
20260901133022 71 146 4.0 10.0 0.00 0.00 0.00 63 1003.9
20260901131521 69 163 4.0 7.0 0.00 0.00 0.00 66 1003.8
20260901130020 69 169 0.0 2.0 0.00 0.00 0.00 65 1003.8
20260901124523 69 169 0.0 3.0 0.00 0.00 0.00 64 1003.7
20260901123016 70 24 0.0 2.0 0.00 0.00 0.00 63 1003.4
20260901121514 70 31 0.0 4.0 0.00 0.00 0.00 63 1003.1
20260901120010 71 317 0.0 3.0 0.00 0.00 0.00 61 1003.1
20260901114508 72 30 0.0 4.0 0.00 0.00 0.00 57 1002.9
20260901113013 72 180 3.0 7.0 0.00 0.00 0.00 57 1002.6
20260901111505 72 182 4.0 8.0 0.00 0.00 0.00 57 1002.6
20260901110005 72 230 2.0 8.0 0.00 0.00 0.00 58 1002.7
20260901104504 72 197 0.0 9.0 0.00 0.00 0.00 58 1002.5
20260901103005 71 277 1.0 7.0 0.00 0.00 0.00 60 1002.3
20260901101615 73 255 6.0 9.0 0.00 0.00 0.00 56 1002.4
20260901100114 73 182 7.0 12.0 0.00 0.00 0.00 56 1002.1
20260901094559 73 171 7.0 15.0 0.00 0.00 0.00 57 1002.1
20260901093057 73 184 8.0 15.0 0.00 0.00 0.00 58 1002.1
20260901091557 73 216 11.0 16.0 0.00 0.00 0.00 57 1002.1
20260901090101 73 148 11.0 20.0 0.00 0.00 0.00 57 1002.0
20260901084559 73 155 12.0 21.0 0.00 0.00 0.00 58 1001.9
20260901083054 73 166 14.0 21.0 0.00 0.00 0.00 58 1002.0
20260901081559 73 156 12.0 23.0 0.00 0.00 0.00 59 1001.8
20260901080054 73 150 13.0 23.0 0.00 0.00 0.00 60 1001.8
20260901074551 73 168 13.0 21.0 0.00 0.00 0.00 60 1002.0
20260901073059 73 181 13.0 24.0 0.00 0.00 0.00 60 1002.1
20260901071548 73 182 14.0 24.0 0.00 0.00 0.00 60 1002.2
20260901070057 73 163 13.0 26.0 0.00 0.00 0.00 60 1002.1
20260901064543 73 132 14.0 23.0 0.00 0.00 0.00 59 1002.2
20260901063046 73 123 16.0 22.0 0.00 0.00 0.00 59 1002.4
20260901061541 73 142 11.0 18.0 0.00 0.00 0.00 59 1002.4
20260901060041 74 129 13.0 22.0 0.00 0.00 0.00 58 1002.5
20260901054536 74 178 11.0 20.0 0.00 0.00 0.00 58 1002.4
20260901053057 74 172 13.0 21.0 0.00 0.00 0.00 57 1002.6
20260901051530 74 147 10.0 18.0 0.00 0.00 0.00 56 1002.6
20260901050027 75 131 11.0 20.0 0.00 0.00 0.00 55 1002.7
20260901044530 75 153 10.0 20.0 0.00 0.00 0.00 54 1002.6
20260901043035 75 139 10.0 20.0 0.00 0.00 0.00 54 1002.7
20260901041527 75 177 10.0 17.0 0.00 0.00 0.00 54 1002.7
20260901040025 75 123 8.0 19.0 0.00 0.00 0.00 53 1002.6
20260901034526 76 119 10.0 19.0 0.00 0.00 0.00 51 1002.6
20260901033032 76 125 9.0 20.0 0.00 0.00 0.00 52 1002.4
20260901031523 76 105 14.0 24.0 0.00 0.00 0.00 53 1002.0
20260901030022 77 123 14.0 23.0 0.00 0.00 0.00 52 1001.9
20260901024525 77 110 13.0 25.0 0.00 0.00 0.00 52 1001.6
20260901023021 78 105 13.0 23.0 0.00 0.00 0.00 50 1001.4
20260901021525 79 116 4.0 14.0 0.00 0.00 0.00 47 1001.3
20260901020041 79 136 7.0 22.0 0.00 0.00 0.00 45 1001.0
20260901014519 80 91 15.0 29.0 0.00 0.00 0.00 44 1000.3
20260901013018 80 114 16.0 29.0 0.00 0.00 0.00 44 999.5
20260901011527 81 139 18.0 30.0 0.00 0.00 0.00 43 999.0
20260901010017 81 137 15.0 29.0 0.00 0.00 0.00 42 998.9
20260901004516 83 127 16.0 32.0 0.00 0.00 0.00 40 998.8
20260901003015 84 133 14.0 26.0 0.00 0.00 0.00 39 998.8
20260901001517 86 132 13.0 19.0 0.00 0.00 0.00 32 999.0
20260901000012 87 117 11.0 17.0 0.00 0.00 0.00 31 999.1
20260831234512 88 130 8.0 13.0 0.00 0.00 0.00 29 999.0
20260831233021 89 172 8.0 15.0 0.00 0.00 0.00 29 999.1
20260831231510 89 165 9.0 14.0 0.00 0.00 0.00 30 999.1
20260831230009 90 168 7.0 13.0 0.00 0.00 0.00 30 999.2
20260831224510 89 168 7.0 17.0 0.00 0.00 0.00 31 999.3
20260831223006 90 158 5.0 17.0 0.00 0.00 0.00 29 999.3
20260831221505 90 96 7.0 12.0 0.00 0.00 0.00 29 999.6
20260831220006 89 128 8.0 13.0 0.00 0.00 0.00 32 999.7
20260831214503 88 136 6.0 13.0 0.00 0.00 0.00 32 1000.0
20260831213100 90 136 7.0 14.0 0.00 0.00 0.00 32 1000.2
20260831211610 89 155 8.0 16.0 0.00 0.00 0.00 32 1000.6
20260831204559 90 112 8.0 12.0 0.00 0.00 0.00 32 1001.1
20260831203054 88 181 7.0 12.0 0.00 0.00 0.00 33 1001.5
20260831201556 87 180 2.0 9.0 0.00 0.00 0.00 33 1001.7
20260831200055 87 177 4.0 13.0 0.00 0.00 0.00 34 1001.9
20260831194628 89 177 5.0 17.0 0.00 0.00 0.00 32 1002.0
20260831193053 89 224 8.0 15.0 0.00 0.00 0.00 32 1002.1